Other Public Products
Issued by NWS Grand Forks, ND

Home | Current Version | Previous Version | Text Only | Print | Product List | Glossary Off
Versions: 1 2 3 4 5 6 7 8 9 10 11 12 13 14 15 16 17 18 19 20 21 22 23 24 25 26 27 28 29 30 31 32 33 34 35 36 37 38 39 40 41 42 43 44 45 46 47 48 49 50

000
FPUS83 KFGF 012010
OPUFGF
PRAIRIE TO PINES WEATHER ROUNDUP
NATIONAL WEATHER SERVICE EASTERN NORTH DAKOTA/GRAND FORKS ND
300 PM CDT FRI AUG 01 2014

 **SATELLITE DATA USED TO AUGMENT SKY COVER AT AUTOMATED STATIONS**
 *****  WEATHER ACROSS EASTERN NORTH DAKOTA  *****

CITY           SKY/WX    TMP DP  RH WIND       PRES   REMARKS
GRAND FORKS    MOSUNNY   82  59  45 NE8       30.07S
GRAND FORKS AF MOSUNNY   81  61  51 VRB6      30.08F
GRAND CITY NWS   N/A     82 N/A N/A N7          N/A
BUXTON         NOT AVBL
DEVILS LAKE    MOSUNNY   81  57  44 S8        30.08F
FARGO          MOSUNNY   84  59  42 N10       30.06F
WAHPETON ARPT  NOT AVBL
$$

 *****  WEATHER ACROSS CENTRAL AND WESTERN NORTH DAKOTA  *****

CITY           SKY/WX    TMP DP  RH WIND       PRES   REMARKS
JAMESTOWN      MOSUNNY   83  58  42 VRB3      30.08F
BISMARCK       SUNNY     89  55  31 S7        30.06S
MINOT          PTSUNNY   79  58  48 E5        30.09S
MINOT AFB      PTSUNNY   79  60  51 S5        30.09S
GARRISON         N/A     83  61  47 VRB5      30.09S
WILLISTON      PTSUNNY   81  58  45 E8        30.09F
DICKINSON      MOSUNNY   84  61  45 E13G18    30.07F
HETTINGER      PTSUNNY   86  53  32 SE8       30.07R
$$

 *****  OTHER OBSERVATIONS NORTHEAST NORTH DAKOTA  *****

CITY           SKY/WX    TMP DP  RH WIND       PRES   REMARKS
WALHALLA       NOT AVBL
LANGDON        FAIR      82  55  39 NW3       30.10F
CAVALIER       FAIR      81  59  47 NE7       30.08S
GRAFTON        FAIR      81  61  50 N5        30.07F
CANDO          NOT AVBL
FORT TOTTEN      N/A     82  63  52 N2        29.95S
ROLLA          NOT AVBL
RUGBY          FAIR      81  63  54 SE7       30.09S
 ***** THE ABOVE OBSERVATIONS ARE NON NWS ARE NOT QUALITY
        CONTROLLED AND MAY MIS-REPORT RAIN FOR SNOW...
$$

 *****  OTHER OBSERVATIONS SOUTHEAST NORTH DAKOTA *****

CITY           SKY/WX    TMP DP  RH WIND       PRES   REMARKS
COOPERSTOWN    NOT AVBL
VALLEY CITY    FAIR      81  59  47 E6        30.09S
OAKES          NOT AVBL
GWINNER        MOCLDY    82  57  42 CALM      30.09F
SHEYENNE NWR     N/A     86  60  41 N6        29.95
BUFFALO        NOT AVBL
WYNDMERE       NOT AVBL
 ***** THE ABOVE OBSERVATIONS ARE NON NWS ARE NOT QUALITY
       CONTROLLED AND MAY MIS-REPORT RAIN FOR SNOW...
$$

  *****  WEATHER ACROSS NORTHERN MINNESOTA  *****

CITY           SKY/WX    TMP DP  RH WIND       PRES   REMARKS
FLAG ISLAND    SUNNY     75  46  35 CALM      30.07S
WARROAD        SUNNY     75  59  57 E6        30.09S
ROSEAU         MOSUNNY   79  55  44 CALM      30.08S
HALLOCK        MOSUNNY   81  59  47 N3        30.06F
THF RVR FALLS  MOSUNNY   79  54  41 NW8       30.08S
HALSTAD          N/A     83  54  36 N6          N/A
FOSSTON        MOSUNNY   81  61  50 N6        30.09S
BAUDETTE       SUNNY     79  52  38 NW8       30.09S
WASKISH        SUNNY     79  61  53 CALM      30.07S
CROOKSTON      MOSUNNY   79  57  47 N7        30.08S
$$
  *****  WEATHER ACROSS CENTRAL AND WEST MINNESOTA  *****

CITY           SKY/WX    TMP DP  RH WIND       PRES   REMARKS
BEMIDJI        MOSUNNY   79  56  44 N8        30.08R
PARK RAPIDS    MOSUNNY   79  52  38 W7        30.07S
WADENA         SUNNY     81  59  47 NW6       30.07S
DETROIT LAKES  SUNNY     79  55  44 N6        30.09F
MOORHEAD       MOSUNNY   81  61  50 N8        30.08S
FERGUS FALLS   MOSUNNY   79  57  47 NW9       30.06S
ELBOW LAKE     FAIR      79  61  53 N9        30.08R
MORRIS MN      SUNNY     84  61  45 NW6       30.07S
STAPLES        MOSUNNY   81  57  44 CALM      30.06F
WHEATON        SUNNY     81  59  47 W8        30.09S
$$
  *****  WEATHER ELSEWHERE ACROSS MINNESOTA  *****

CITY           SKY/WX    TMP DP  RH WIND       PRES   REMARKS
DULUTH         MOSUNNY   77  56  48 SE9       30.07S
INTRNTL FALLS  SUNNY     78  51  38 NE5       30.07R
ELY            MOSUNNY   75  52  43 CALM      30.07S
CLOQUET        MOSUNNY   75  57  53 S3        30.06F
BRAINERD       MOSUNNY   78  61  55 W7        30.07F
HIBBING        PTSUNNY   80  56  43 N6        30.06S
ALEXANDRIA     PTSUNNY   79  57  46 NW8       30.10R
SAINT CLOUD    MOSUNNY   86  57  37 VRB3      30.05F
MINNEAPOLIS    MOSUNNY   84  56  38 NW7       30.05F
$$

  *****  WEATHER ACROSS SOUTH DAKOTA  *****

CITY           SKY/WX    TMP DP  RH WIND       PRES   REMARKS
SIOUX FALLS    MOSUNNY   83  56  39 CALM      30.10F
BROOKINGS      NOT AVBL
WATERTOWN      PTSUNNY   81  53  37 W6        30.10S
HURON          SUNNY     83  56  39 CALM      30.07F
SISSETON         N/A     84  60  44 N6        30.07S
ABERDEEN       SUNNY     83  54  36 NE5       30.08S
MITCHELL       SUNNY     83  59  44 SE9       30.09F
PIERRE         SUNNY     91  57  31 SE16G23   30.01F
MOBRIDGE       SUNNY     88  59  37 SE14      30.02F
RAPID CITY     PTSUNNY   78  47  33 S15       30.10S
$$

  *****  SOME WEATHER IN NEARBY STATES *****

CITY           SKY/WX    TMP DP  RH WIND       PRES   REMARKS
GLASGOW MT     SUNNY     89  51  27 MISG      30.08S
GREAT FALLS MT SUNNY     86  45  23 VRB3      30.17F
CHEYENNE WY    MOSUNNY   76  42  29 SW10G20   30.31F
SCOTTSBLUFF NE SUNNY     88  39  17 VRB5      30.18F
OMAHA NE       MOSUNNY   83  59  44 VRB5      30.09S
DES MOINES IA  MOSUNNY   84  61  45 NE6       30.08S
DAVENPORT IA   MOSUNNY   80  60  50 CALM      30.07F
CHICAGO IL     LGT RAIN  75  60  59 CALM      30.07S
EAU CLAIRE WI  PTSUNNY   79  61  53 N5        30.04F
LA CROSSE WI   SUNNY     84  59  42 VRB6      30.05F
$$

  *****  SOME NATIONAL WEATHER *****

CITY           SKY/WX    TMP DP  RH WIND       PRES   REMARKS
LA GUARDIA NY  CLOUDY    77  67  71 S15G23    30.20R
RALEIGH NC     HVY RAIN  67  64  90 NE15      30.09F FOG
ATLANTA GA     PTSUNNY   78  66  66 E8        30.06S
NEW ORLEANS LA CLOUDY    86  68  54 S7        29.99S
OKLAHOMA CITY  PTSUNNY   84  63  49 VRB5      30.08F
ALBUQUERQUE NM MOSUNNY   77  55  46 VRB5      30.24F
SALT LAKE CITY MOSUNNY   86  45  23 SW5       30.13F
LOS ANGELES CA MOSUNNY   75  63  66 W10       29.92F
BOISE ID       SUNNY     93  46  19 CALM      30.05F
SEATTLE WA     PTSUNNY   78  51  38 W7        30.04F
$$

*** WEATHER ACROSS MANITOBA...SASKATCHEWAN AND ONTARIO ***
                ***ONTARIO***

CITY           SKY/WX    TMP DP  RH WIND       PRES   REMARKS
GERALDTON      NOT AVBL
THUNDER BAY    NOT AVBL
SIOUX LOOKOUT  NOT AVBL
TORONTO        NOT AVBL
BIG TROUT LK   SUNNY     66  48  52 SE6       30.03F
PICKLE LAKE    NOT AVBL
DRYDEN         NOT AVBL
KENORA         NOT AVBL
$$
                *** MANITOBA***

CITY           SKY/WX    TMP DP  RH WIND       PRES   REMARKS
BRANDON        NOT AVBL
DAUPHIN        NOT AVBL
ISLAND LAKE    NOT AVBL
PILOT MOUND    NOT AVBL
THE PAS        NOT AVBL
THOMPSON       LGT RAIN N/A N/A N/A N6          N/A
WINNIPEG       NOT AVBL
$$
                ***SASKATCHEWAN***

CITY           SKY/WX    TMP DP  RH WIND       PRES   REMARKS
ESTEVAN        NOT AVBL
KINDERSLEY     NOT AVBL
LLOYDMINSTER   NOT AVBL
PRINCE ALBERT  NOT AVBL
REGINA         NOT AVBL
YORKTON        NOT AVBL
N. BATTLEFORD  NOT AVBL
LA RONGE       PTSUNNY   72  59  64 N15       30.13S



USA.gov is the U.S. government's official web portal to all federal, state and local government web resources and services.